Hourly Data Report for October 06, 2017

All times are specified in Local Standard Time (LST). Add 1 hour to adjust for Daylight Saving Time where and when it is observed.

PANGNIRTUNG
NUNAVUT

66°08'36.300" N
65°42'40.500" W
22.60 m
2403049
71826
WXP

Download Data

Hourly Data (October 2017)
Hourly Data Report for October 6, 2017
Temp Definition
°C
Dew Point Temp Definition
°C
Rel Hum Definition
%
Wind Dir Definition
10's deg

Wind Spd Definition
km/h
Visibility Definition
km
Stn Press Definition
kPa
Hmdx Definition


Wind Chill Definition


Weather Definition


TIME
00:00 0.0 -4.3 73 15 16   99.39   -5 LegendNANA
01:00 -0.5 -4.8 73 13 16   99.34   -5 LegendNANA
02:00 -0.1 -5.0 69 11 11   99.31   -4 LegendNANA
03:00 -1.0 -5.2 73 11 6   99.25   -3 LegendNANA
04:00 -0.4 -4.8 73 25 5   99.21   -2 LegendNANA
05:00 -1.0 -4.8 75 15 2   99.16   -2 LegendNANA
06:00 -1.2 -5.0 75 15 2   99.10   -2 LegendNANA
07:00 -0.9 -5.3 72 11 4   99.05   -2 LegendNANA
08:00 -0.9 -4.3 78 11 2   99.00   -2 LegendNANA
09:00 -1.0 -3.0 86 22 2   98.95   -2 LegendNANA
10:00 -1.4 -2.4 93 24 2   98.87   -2 LegendNANA
11:00 -2.0 -2.5 96 25 12   98.78   -6 LegendNANA
12:00 -1.8 -2.2 97 25 7   98.71   -4 LegendNANA
13:00 -1.7 -2.0 98 25 9   98.67   -5 LegendNANA
14:00 -1.6 -2.1 97 25 7   98.62   -4 LegendNANA
15:00 -1.4 -2.2 94 26 4   98.59   -3 LegendNANA
16:00 -1.2 -2.9 88 21 4   98.54   -3 LegendNANA
17:00 -1.0 -2.7 88 25 12   98.51   -5 LegendNANA
18:00 -0.8 -2.8 86 23 8   98.47   -4 LegendNANA
19:00 -0.3 -3.3 80 24 16   98.44   -5 LegendNANA
20:00 -0.3 -3.2 81 23 12   98.42   -4 LegendNANA
21:00 -0.3 -2.5 86 24 17   98.42   -5 LegendNANA
22:00 -0.2 -2.2 87 25 12   98.41   -4 LegendNANA
23:00 0.5 -2.2 82 24 16   98.39     LegendNANA

Notes on Data Quality.

Legend

  • E = Estimated
  • M = Missing
  • NA = Not Available
  • ‡ = Partner data that is not subject to review by the National Climate Archives
Date modified: